Tracking 25963 objects as of 12-Aug-2022
HD Live streaming from Space Station
objects crossing your sky now

RESURS O1 DEB

Track RESURS O1 DEB now!
10-day predictions


NORAD ID: 46512
Int'l Code: 1994-074AY
Perigee: 600.2 km
Apogee: 612.6 km
Inclination: 97.9 °
Period: 96.7 minutes
Semi major axis: 6977 km
RCS: Unknown
Launch date: November 4, 1994
Source: Commonwealth of Independent States (former USSR) (CIS)
Launch site: TYURATAM MISSILE AND SPACE COMPLEX (TTMTR)

Note: This is SATELLITE DEBRIS
aabbcc
Your satellite tracking list
Your tracking list is empty




NASA's NSSDC Master Catalog

Two Line Element Set (TLE):
1 46512U 94074AY  22223.88406475  .00017595  00000-0  18445-2 0  9996
2 46512  97.8982 274.4784 0008840 163.9034 196.2466 14.89579789105248
Source of the keplerian elements: AFSPC